Location: Pine Mountain Observatory
(43.7910°N, 120.9377°W)
Time: 13:47:08
(UTC-07:00)

APEX - Visible Passes

Search period start: 31 March 2015 00:00
Search period end: 10 April 2015 00:00
Orbit: 336 x 1338 km, 69.9° (Epoch: 30 March)

Date Brightness Start Highest point End Pass type
(mag) Time Alt. Az. Time Alt. Az. Time Alt. Az.
31 Mar 7.7 05:35:10 10° ESE 05:37:27 12° E 05:40:25 10° ENE visible
01 Apr 7.7 05:19:08 10° ESE 05:20:57 11° E 05:23:24 10° ENE visible
02 Apr 7.7 05:03:17 10° E 05:04:24 11° E 05:06:09 10° ENE visible
04 Apr 5.7 06:07:10 10° S 06:13:39 55° ESE 06:21:31 10° NNE visible
05 Apr 5.8 05:50:29 10° S 05:56:58 52° ESE 06:04:48 10° NE visible
06 Apr 5.9 05:33:47 10° S 05:40:15 49° ESE 05:48:02 10° NE visible
07 Apr 5.9 05:17:03 10° S 05:23:31 47° ESE 05:31:14 10° NE visible
08 Apr 6.0 05:00:18 10° S 05:06:45 44° ESE 05:14:24 10° NE visible
09 Apr 6.0 04:43:32 10° S 04:49:57 42° ESE 04:57:31 10° NE visible
